Kezdőlap
METAR-TAF:

METAR-TAF

Repülőterek :

Waupaca Municipal Airport

Waupaca, Wisconsin, Amerikai Egyesült Államok

földrajzi szélesség: 44-20-01N, földrajzi hosszúság: 089-00-55W, magasság: 252 m

Jelenlegi meteorológiai megfigyelések

A jelentés 5 perccel ezelõtt készült, 13:15 UTC
Keleti szél 3 kt
Hőmérséklet 21°C
Páratartalom 94%
Légköri nyomás 1017 hPa
Látótávolság: 16.1 km
Derült ég

METAR: KPCZ 281315Z AUTO 09003KT 10SM CLR 21/20 A3004 RMK AO2 T02110202

Idő: 08:20 (13:20 UTC)


TAF: hiányzik

Meteorológiai megfigyelések és előrejelzések több, mint 4000 repülőtéren (METAR és TAF jelentéseket).

A térképen piros és sárga pontok jelzik az elérhető meteorológiai állomásokat.

Mozgassa az egeret a pont fölött, hogy megjelenjen az állomás neve.

Azután kattintson az időjárási megfigyelések és előrejelzések megtekintéséhez.

A térkép megváltoztatása: kattintson a fekete keresztel jelölt zöld gombra ráközelítéshez, a vonallal jelölt zöld gombra távolításhoz, vagy a zöld nyilakra a szomszédos térképek eléréséhez.


METAR-TAF: